Flag for Sierra Leone Weather past 2 weeks in Bo, Sierra Leone

Now
84 °F

Scattered clouds.


Feels Like: 92 °F
Forecast: N/A
Wind: 6 mph from Southwest

Location: Roberts Field

Current Time: Apr 1, 2015 at 6:23:58 PM

Latest Report: Apr 1, 2015 at 6:00 PM


Visibility: N/A

Pressure: 29.80 "Hg

Humidity: 74%

Dew point: 75 °F

Location of BoLocation

Historic Weather in Bo — Graph

°F

Bo temperature yesterday

Maximum temperature yesterday: 91 °F (at 2:00 PM)
Minimum temperature yesterday: 73 °F (at 5:00 AM)
Average temperature yesterday: 81 °F

Past Weeks' High & Low Weather Summary

 TemperatureHumidityPressure
High93 °F (Mar 19, 3:00 PM)100% (Mar 22, 7:00 AM)29.98 "Hg (Mar 22, 7:00 AM)
Low73 °F (Mar 22, 11:30 PM)62% (Mar 19, 1:00 PM)29.71 "Hg (Mar 19, 4:00 PM)
Average81 °F84%29.84 "Hg
* Reported Mar 18 12:30 AM — Apr 1 5:00 PM, Bo, Weather by CustomWeather, © 2015

Note: Actual official high and low records may vary slightly from our data, if they occured in-between our weather recording intervals... More about our weather records

Advertising

Bo weather history for previous 24 hours

 ConditionsComfort  
Time TempWeatherWind HumidityBarometerVisibility
5:00 PM
Wed, Apr 1
88 °FScattered clouds.9 mph66%29.80 "HgN/A
4:30 PM88 °FScattered clouds.9 mph70%29.80 "HgN/A
4:00 PM88 °FScattered clouds.9 mph70%29.80 "HgN/A
3:30 PM90 °FScattered clouds.12 mph67%29.80 "HgN/A
3:00 PM90 °FPartly sunny.14 mph67%29.80 "HgN/A
2:30 PM90 °FPartly sunny.8 mph67%29.83 "HgN/A
2:00 PM91 °FPartly sunny.9 mph67%29.83 "HgN/A
1:30 PM91 °FPartly sunny.13 mph67%29.83 "HgN/A
1:00 PM91 °FPartly sunny.9 mph67%29.83 "HgN/A
12:30 PM90 °FPartly sunny.6 mph63%29.86 "HgN/A
12:00 PM90 °FPartly sunny.6 mph63%29.89 "HgN/A
11:30 AM88 °FBroken clouds.7 mph62%29.89 "HgN/A
11:00 AM88 °FPartly sunny.7 mph66%29.92 "HgN/A
10:30 AM84 °FScattered clouds.7 mph70%29.92 "HgN/A
10:00 AM84 °FScattered clouds.5 mph74%29.92 "HgN/A
9:30 AM81 °FPassing clouds.6 mph84%29.92 "HgN/A
9:00 AM79 °FPartly sunny.5 mph89%29.92 "Hg5 mi
8:30 AM77 °FPartly sunny.No wind94%29.89 "Hg4 mi
8:00 AM77 °FPartly sunny.No wind94%29.89 "Hg4 mi
7:30 AM75 °FPassing clouds.No wind94%29.89 "Hg4 mi
7:00 AM75 °FFog.No wind94%29.89 "Hg3 mi
6:30 AM75 °FFog.No wind94%29.86 "Hg3 mi
6:00 AM75 °FFog.No wind94%29.86 "Hg3 mi
5:30 AM73 °FFog.No wind100%29.86 "Hg2 mi
5:00 AM75 °FFog.No wind94%29.83 "Hg3 mi
4:00 AM75 °FPassing clouds.No wind94%29.83 "Hg4 mi
3:00 AM75 °FPassing clouds.No wind94%29.83 "Hg5 mi
2:30 AM75 °FPassing clouds.No wind94%29.83 "Hg5 mi
1:30 AM75 °FPassing clouds.No wind94%29.86 "Hg5 mi
1:00 AM75 °FPassing clouds.No wind94%29.86 "Hg5 mi
12:30 AM77 °FPassing clouds.No wind94%29.89 "HgN/A
12:00 AM77 °FPassing clouds.No wind94%29.89 "HgN/A
11:30 PM
Tue, Mar 31
77 °FPassing clouds.No wind94%29.89 "HgN/A
11:00 PM77 °FPassing clouds.No wind94%29.89 "HgN/A
10:30 PM77 °FPassing clouds.No wind94%29.89 "HgN/A
10:00 PM77 °FPassing clouds.No wind94%29.89 "HgN/A
9:30 PM77 °FPassing clouds.No wind94%29.89 "HgN/A
9:00 PM79 °FPassing clouds.No wind84%29.86 "HgN/A
8:30 PM79 °FPassing clouds.No wind84%29.86 "HgN/A
8:00 PM79 °FPassing clouds.No wind89%29.86 "HgN/A
7:30 PM81 °FPassing clouds.3 mph84%29.83 "HgN/A
7:00 PM81 °FPassing clouds.3 mph84%29.83 "HgN/A
6:30 PM82 °FPassing clouds.5 mph79%29.80 "HgN/A
6:00 PM84 °FPassing clouds.7 mph79%29.80 "HgN/A
Weather by CustomWeather, © 2015

See weather overviewHow to use our weather pages